Showing default

IRIDIUM 158, 43571

Orbit data source: Space-Track

IRIDIUM 158, 43571 is a payload satellite owned by Iridium (US) in LEO that was launched on Wed, 25 Jul 2018 UTC via an FALCON 9 launch vehicle from the Air Force Western Test Range (AFWTR). Payload-class satellites include a variety of spacecraft equipped with specific instruments for various scientific and technological missions. These include communications satellites like Starlink; space stations such as the ISS; scientific satellites like the Hubble; Earth observation satellites from companies like Planet Labs, Umbra, and HawkEye 360; GPS; miniature CubeSats for education and research; and military/defense satellites.

Loading next visibility...
Identifier
43571, 2018-061C
Orbit
LEO
Country
Flag of USUS
Related business
Manufacturer
NGIS SSG Gilbert
Mission
Operational Commercial Communications
Bus & Motor
ELITEBUS, Unknown motor
Mass
860 kg wet, 700 kg dry
Launch date (UTC)
2018-07-25 (8 years ago)
Launch vehicle
FALCON 9
Launch site
Air Force Western Test Range (AFWTR)
Object type
Payload
Rocket body
Debris
Shape & HBR
Trap Box + 2 Pan, 4.8 m
Radar Cross Section
10.154 m², Large (>1 m²)

Expand to show TLE details & history
Last TLE update: 6 hours ago

TLE from 6 hours ago
0 IRIDIUM 158
1 43571U 18061C   26034.16822447  .00000281  00000-0  93110-4 0  9994
2 43571  86.3971 112.8166 0002363  93.7451 266.4015 14.34217796394154
Epoch: 2026-02-03T04:02Z
TLE epoch observation values (Epoch: 2026-02-03T04:02:14.594Z)
Latitude
-0.00001°
Longitude
-81.09724°
Altitude
780.824 km
Speed
7.463 km/s
True Right ascension
07h 31m 15s
True Declination
0° 00' 00"
Sunlit
Object was in full shadow at epoch
Visualization orbit readout
Latitude
Unknown
Longitude
Unknown
Altitude
Unknown
Speed
Unknown
Apparent Right ascension
Unknown
Apparent Declination
Unknown
Sunlit
N/A
Visualization observer readout
Local Sidereal Time
11:39:39
Azimuth
Unknown
Elevation
Unknown
Doppler factor
Unknown
Orbital elements
Apogee altitude
776.322 km
Perigee altitude
772.941 km
Semi-major axis
7,152.768 km
Eccentricity
0.00024
Inclination
86.3971°
RAAN
112.8166°
Arg. of periapsis
93.7451°
True anomaly
266.37448°
Mean anomaly
266.4015°
Eccentric anomaly
266.38799°
Mean motion
3.58783 °/min
Orbital period
100.34 mins
BSTAR
0.00009311
Loading maneuver chart data...
Computing Atmospheric mass density...
Loading historical data...
Loading historical data...
Loading historical data...
Loading historical data...
Loading historical data...
Loading historical data...
Loading historical data...

Documentation

Showing up to 5 results
|